Wind_Speed
64 62 62 58 58 54 54 53 53 49 46 48 51 56 55 54 53 57 59 60 62 64 64 63 64 56 55 54 54 56 58 63 65 69 70 74 80 82 78 70 66 62 58 54
69 67 67 65 64 62 60 58 57 57 54 51 51 53 50 51 51 54 60 62 63 66 65 64 60 56 54 52 54 57 59 61 64 69 71 76 80 81 74 67 63 59 53 48
74 74 73 75 75 71 71 68 66 63 58 54 55 57 56 56 56 54 57 61 65 66 66 60 59 55 50 51 52 56 56 61 64 69 74 78 81 81 73 65 60 55 50 41
82 82 82 80 81 79 77 76 70 65 62 61 64 61 65 63 62 62 61 63 64 64 64 61 56 50 47 48 51 54 57 58 63 70 77 79 80 80 70 64 55 47 42 35
87 87 86 86 85 80 77 80 79 71 68 66 67 65 69 68 68 64 62 61 62 64 63 60 50 52 44 45 51 56 54 61 67 74 72 78 79 76 67 59 49 48 42 32
92 90 89 88 87 85 81 78 75 73 71 71 73 70 71 71 70 67 65 64 65 64 63 60 46 46 41 43 47 53 58 61 64 70 72 76 78 68 66 57 48 40 26 19
93 93 92 90 89 88 85 84 82 75 77 73 71 70 71 74 75 70 65 69 64 61 61 53 43 37 37 39 45 49 55 58 62 67 69 73 76 65 63 57 47 34 24 22
99 98 97 94 92 91 88 84 84 79 75 73 74 72 73 77 74 70 70 65 58 55 55 44 39 35 34 37 42 47 52 55 61 63 64 69 74 68 62 55 42 30 25 30
101 101 99 99 97 95 91 86 85 82 80 77 74 73 76 77 74 71 66 58 56 50 46 42 38 37 34 36 41 46 50 53 57 58 61 64 71 71 62 56 41 27 31 33
103 102 104 102 99 96 95 93 90 86 82 78 75 72 74 75 73 70 62 60 53 47 43 43 42 37 36 34 38 43 47 49 53 54 58 59 65 68 56 54 49 31 37 40
103 104 101 99 99 98 95 91 89 87 82 75 70 71 74 74 69 65 64 57 49 47 45 44 41 39 38 36 36 41 45 47 48 51 56 54 59 64 50 46 41 29 31 39
100 98 97 96 96 95 92 89 87 86 82 79 76 70 70 64 65 62 60 59 55 51 48 47 42 46 40 33 37 40 43 47 43 49 54 49 56 58 49 41 37 28 28 31
99 100 96 93 91 89 89 89 87 83 80 75 74 62 68 70 67 63 63 63 59 55 51 49 49 52 41 41 36 37 41 41 39 45 50 45 50 52 51 32 31 26 23 27
98 98 97 94 91 90 87 86 84 80 78 72 66 61 62 65 73 69 63 64 63 63 60 56 58 54 40 39 38 37 39 37 33 41 46 41 43 48 49 31 27 24 17 21
101 100 96 93 90 88 82 83 82 77 72 66 71 68 67 73 80 75 77 75 70 71 67 58 58 51 44 35 37 36 39 35 33 36 42 40 36 41 45 38 23 23 19 11
107 104 100 96 91 88 85 80 76 74 78 79 82 76 83 85 81 82 82 79 76 74 68 60 57 53 44 35 35 37 39 37 35 31 38 37 35 35 38 41 27 20 18 12
112 112 105 106 102 98 92 91 93 92 93 98 92 89 90 91 90 90 88 81 78 75 69 60 55 51 48 41 37 38 39 38 36 30 33 34 33 33 32 37 37 19 15 11
120 118 119 113 112 110 106 101 105 106 106 104 101 103 99 99 99 95 89 83 79 77 68 58 54 52 46 47 42 41 39 35 35 30 31 30 31 32 29 29 35 30 16 11
101 107 109 118 124 120 117 116 117 118 114 111 111 107 109 107 107 102 97 86 80 76 71 63 56 54 49 50 42 43 40 35 34 30 31 27 28 31 30 26 30 29 23 16
80 85 88 89 91 93 96 96 97 106 107 104 113 113 109 105 105 97 94 94 86 79 76 69 61 59 55 53 51 43 45 39 35 32 31 27 26 27 31 27 25 30 24 22
58 60 64 67 68 69 74 80 85 90 94 94 90 90 91 91 90 92 92 89 87 83 81 75 68 63 59 58 57 52 47 42 37 35 33 30 25 26 31 30 25 24 26 19
54 52 51 51 50 50 62 63 63 64 64 65 65 67 69 72 74 76 78 80 81 81 82 80 73 68 66 62 63 59 55 44 41 41 36 34 29 28 30 29 28 22 22 20
55 54 51 48 46 50 51 52 54 56 57 57 56 55 55 56 57 60 64 71 75 76 78 80 76 74 69 66 68 63 62 50 47 43 40 37 32 32 31 30 28 24 18 20
57 55 51 50 47 50 50 49 49 49 48 49 50 50 51 51 51 50 51 54 61 70 77 78 79 78 75 69 68 66 61 55 49 48 48 42 39 31 36 32 29 28 24 22
60 59 56 53 52 52 52 51 49 46 45 45 46 46 47 46 45 45 45 46 50 57 65 74 77 78 79 73 71 69 64 57 51 49 44 42 42 35 36 36 33 31 28 26
62 61 60 58 57 53 51 50 50 48 48 48 45 44 44 42 41 40 40 42 45 48 54 62 73 77 81 77 74 73 69 62 57 55 46 44 45 43 37 36 38 36 30 30
Wind_Direction
260 263 264 273 275 271 269 270 277 279 282 289 290 288 295 294 297 300 305 308 311 313 317 323 325 326 330 328 319 316 316 317 318 322 326 330 333 332 329 324 324 319 317 312
258 261 264 266 269 272 273 274 273 277 279 282 289 293 296 298 299 300 302 305 307 310 316 322 323 325 329 325 319 316 317 319 320 323 329 331 335 333 331 326 328 328 321 316
257 257 264 265 266 270 273 275 279 277 279 281 287 290 292 292 298 301 303 305 306 309 314 320 322 325 325 325 318 315 317 319 322 327 331 331 335 335 333 333 336 332 326 321
259 262 263 264 265 270 270 272 275 277 278 283 283 285 289 291 294 296 299 302 309 311 314 318 322 327 325 324 317 313 315 321 326 328 330 332 339 337 337 341 339 341 343 339
259 260 262 261 264 267 268 270 273 275 276 280 283 285 287 289 295 297 299 303 308 309 314 315 319 323 323 322 317 315 314 316 320 324 331 333 342 342 343 345 347 351 347 342
259 259 259 261 264 266 268 270 272 274 276 279 282 284 286 289 294 298 299 303 307 308 310 312 318 324 323 320 319 317 315 318 322 326 331 336 343 348 351 352 356 352 355 8
259 259 260 262 263 265 266 269 272 273 273 277 279 284 283 287 293 296 298 301 302 305 309 311 319 325 324 318 318 317 317 321 323 327 332 339 345 352 356 2 0 2 23 49
260 261 262 265 266 265 267 270 272 273 274 276 279 280 282 287 291 295 296 298 300 303 307 313 320 326 321 317 317 316 318 321 325 329 336 342 348 355 358 8 0 11 40 63
261 262 264 264 265 266 269 271 272 273 274 276 279 280 281 286 289 292 293 294 298 300 306 314 321 324 318 311 314 316 317 321 325 330 338 343 350 354 359 7 7 22 49 65
259 259 261 263 264 265 267 268 271 273 274 277 278 278 279 283 287 289 289 293 296 300 307 310 315 315 317 310 311 314 314 320 325 329 337 344 350 356 358 7 6 32 55 65
257 259 259 261 264 264 266 268 269 271 273 273 272 275 279 282 283 282 288 291 297 300 303 304 311 310 315 301 310 314 309 314 323 328 334 342 348 356 0 4 13 33 62 70
255 258 259 261 263 265 267 269 269 271 272 271 276 278 277 275 276 282 287 292 292 295 299 302 304 312 303 300 306 307 304 306 316 321 328 340 343 357 360 2 13 23 62 71
253 256 257 258 259 261 263 265 268 270 272 274 272 270 273 278 279 281 284 287 288 291 295 295 299 304 295 306 297 299 301 306 314 320 324 338 342 353 358 360 9 22 62 85
251 252 254 254 257 258 259 262 263 266 268 268 270 269 273 276 277 279 279 280 282 287 294 295 301 298 291 301 285 293 294 300 312 317 319 334 341 349 358 357 0 23 38 87
254 254 255 257 257 256 260 262 263 265 263 265 269 269 267 271 275 280 281 282 283 287 292 290 296 292 291 288 284 286 286 292 303 311 315 326 335 347 352 0 354 359 21 76
251 252 257 260 262 263 265 269 267 262 263 263 264 268 270 271 276 278 278 284 283 285 286 286 290 285 282 276 275 278 280 285 293 303 310 319 330 341 351 357 358 345 1 38
251 250 253 254 256 258 259 260 260 260 259 262 264 262 265 270 271 275 276 275 276 278 278 274 273 276 274 271 264 269 273 280 285 295 302 314 322 328 348 350 359 349 337 1
251 252 253 254 256 256 258 257 259 259 260 261 263 265 266 267 271 272 273 272 270 272 270 266 263 261 260 261 260 261 266 273 279 283 291 307 316 317 339 346 352 358 338 319
253 254 255 255 255 257 257 257 258 260 263 264 263 264 264 265 268 269 269 266 261 259 258 256 254 253 252 253 253 259 257 261 268 271 279 293 307 307 320 336 344 355 349 331
250 253 254 254 255 256 256 258 258 259 260 262 263 263 265 262 267 263 260 263 258 256 252 249 248 246 245 249 249 252 258 257 261 263 269 279 295 300 305 324 333 345 346 345
249 251 251 252 253 255 256 256 256 256 258 261 263 263 262 261 261 259 257 255 254 254 250 246 246 242 240 241 246 242 249 255 251 256 261 268 278 287 296 309 325 331 349 354
249 249 252 252 251 251 250 252 257 258 258 259 258 258 258 257 256 253 252 251 249 247 247 246 242 240 240 238 243 245 245 250 248 254 253 259 267 274 282 294 312 316 339 339
251 250 251 251 251 250 250 252 252 251 251 255 255 254 257 258 257 255 252 249 247 243 242 242 239 239 237 237 242 246 245 246 248 246 246 256 256 260 273 284 299 302 315 326
250 250 249 249 250 252 250 253 255 255 254 255 257 259 258 258 260 259 257 254 249 243 239 237 238 233 235 234 237 241 245 245 242 241 242 254 248 251 265 274 278 288 295 301
246 248 250 248 249 248 249 252 255 256 255 254 255 257 258 257 258 259 257 254 251 246 240 235 231 231 231 232 231 238 239 240 237 242 242 241 241 240 252 264 268 285 286 284
246 246 249 248 249 250 252 255 255 254 254 254 254 256 258 259 258 258 257 254 250 248 243 237 233 228 226 229 228 233 237 236 235 237 240 238 236 245 248 254 263 273 275 276
Height
10732 10734 10729 10738 10741 10744 10744 10745 10745 10745 10748 10747 10745 10738 10738 10738 10738 10733 10730 10726 10722 10717 10711 10706 10700 10692 10684 10677 10670 10661 10652 10642 10632 10622 10611 10596 10579 10560 10541 10523 10506 10490 10476 10463
10717 10720 10721 10723 10728 10732 10734 10736 10734 10736 10738 10739 10735 10729 10729 10728 10725 10724 10721 10718 10714 10709 10703 10698 10692 10684 10676 10668 10662 10654 10645 10636 10626 10615 10603 10587 10570 10550 10529 10510 10493 10477 10461 10450
10702 10706 10707 10711 10713 10717 10721 10723 10724 10726 10728 10729 10726 10720 10716 10718 10717 10714 10712 10709 10705 10700 10695 10690 10683 10676 10668 10661 10654 10648 10639 10629 10620 10607 10595 10580 10562 10540 10519 10501 10484 10466 10451 10441
10686 10691 10692 10696 10699 10704 10708 10709 10713 10715 10717 10718 10715 10715 10703 10705 10707 10704 10703 10700 10696 10691 10686 10682 10675 10668 10661 10655 10648 10641 10633 10623 10612 10600 10590 10573 10555 10533 10511 10493 10474 10459 10445 10434
10668 10673 10676 10679 10683 10687 10694 10695 10699 10703 10705 10707 10703 10705 10690 10692 10694 10693 10691 10690 10687 10683 10679 10672 10667 10660 10652 10648 10642 10635 10627 10617 10607 10595 10585 10567 10549 10530 10505 10487 10470 10456 10444 10434
10651 10655 10658 10662 10666 10672 10678 10680 10684 10689 10692 10696 10688 10691 10683 10681 10680 10680 10681 10679 10676 10674 10670 10664 10658 10652 10647 10642 10635 10629 10623 10612 10602 10591 10581 10562 10545 10528 10505 10485 10469 10458 10449 10439
10630 10637 10643 10648 10651 10655 10659 10664 10669 10676 10678 10681 10678 10679 10673 10669 10666 10669 10670 10667 10665 10663 10661 10656 10650 10643 10640 10635 10630 10623 10617 10609 10598 10587 10577 10561 10544 10528 10508 10490 10474 10464 10453 10443
10610 10619 10626 10636 10636 10637 10641 10647 10651 10658 10663 10666 10667 10667 10661 10654 10655 10657 10658 10656 10655 10653 10651 10646 10641 10636 10632 10630 10624 10619 10612 10606 10596 10586 10575 10560 10546 10529 10512 10499 10485 10471 10460 10450
10592 10601 10608 10613 10615 10619 10627 10630 10630 10639 10647 10651 10653 10653 10648 10641 10643 10644 10646 10646 10645 10644 10640 10637 10633 10630 10626 10623 10618 10614 10608 10603 10594 10584 10575 10562 10548 10530 10515 10503 10492 10479 10468 10460
10574 10581 10588 10590 10595 10601 10606 10610 10613 10620 10630 10636 10641 10639 10634 10629 10628 10630 10631 10633 10633 10632 10630 10627 10624 10624 10620 10616 10613 10609 10604 10600 10593 10583 10577 10564 10551 10538 10522 10511 10499 10488 10478 10472
10552 10559 10569 10572 10577 10581 10587 10592 10594 10600 10612 10618 10623 10625 10621 10619 10611 10614 10615 10618 10620 10622 10621 10617 10616 10616 10614 10611 10608 10604 10600 10596 10591 10583 10577 10565 10555 10542 10532 10519 10510 10499 10491 10485
10527 10539 10550 10554 10557 10561 10568 10572 10574 10579 10590 10599 10608 10611 10605 10603 10598 10596 10599 10603 10606 10609 10611 10609 10608 10608 10607 10604 10602 10598 10594 10591 10588 10581 10576 10567 10556 10548 10536 10525 10519 10509 10501 10496
10507 10520 10527 10534 10538 10542 10547 10552 10556 10561 10570 10584 10589 10595 10582 10582 10580 10583 10586 10588 10590 10595 10600 10600 10599 10601 10599 10598 10595 10593 10590 10586 10584 10579 10574 10568 10558 10550 10541 10533 10524 10520 10510 10505
10485 10499 10506 10511 10519 10523 10529 10532 10539 10547 10555 10558 10569 10569 10562 10561 10558 10566 10572 10573 10576 10580 10588 10591 10590 10590 10590 10589 10589 10587 10585 10582 10580 10575 10571 10567 10560 10551 10544 10535 10529 10525 10518 10513
10465 10473 10482 10488 10496 10503 10511 10517 10522 10528 10532 10538 10540 10545 10544 10542 10536 10555 10551 10555 10565 10568 10574 10579 10579 10579 10580 10581 10582 10580 10579 10577 10575 10571 10569 10564 10560 10554 10545 10538 10531 10527 10523 10519
10446 10453 10460 10464 10471 10479 10489 10498 10502 10503 10505 10514 10517 10535 10523 10523 10532 10530 10533 10544 10548 10553 10559 10563 10565 10567 10569 10571 10573 10572 10571 10571 10569 10567 10564 10561 10557 10554 10546 10540 10533 10529 10525 10521
10422 10431 10439 10446 10449 10458 10476 10480 10477 10481 10483 10483 10499 10507 10509 10508 10512 10518 10520 10524 10530 10535 10542 10548 10551 10553 10556 10559 10561 10562 10563 10564 10562 10561 10559 10557 10553 10552 10547 10539 10535 10529 10526 10522
10399 10407 10413 10421 10424 10436 10453 10456 10448 10450 10455 10461 10473 10479 10487 10488 10487 10499 10503 10506 10510 10515 10522 10531 10537 10539 10543 10545 10549 10552 10553 10555 10555 10554 10553 10553 10550 10547 10546 10541 10535 10530 10526 10523
10370 10377 10385 10394 10404 10412 10419 10423 10424 10423 10429 10434 10440 10451 10459 10463 10466 10474 10479 10484 10490 10496 10502 10511 10520 10524 10529 10533 10537 10541 10543 10545 10547 10546 10546 10546 10545 10542 10542 10540 10536 10530 10525 10521
10347 10353 10360 10370 10377 10381 10384 10391 10399 10399 10395 10405 10411 10420 10429 10434 10442 10446 10453 10460 10469 10476 10483 10490 10501 10508 10514 10519 10523 10528 10532 10535 10538 10539 10538 10539 10539 10538 10536 10536 10534 10529 10526 10520
10328 10334 10341 10346 10355 10361 10362 10361 10365 10370 10375 10380 10387 10393 10399 10404 10410 10418 10423 10432 10441 10452 10461 10470 10479 10488 10497 10502 10507 10513 10519 10524 10528 10529 10530 10531 10532 10533 10531 10530 10529 10527 10523 10520
10310 10318 10324 10330 10339 10345 10334 10342 10348 10354 10358 10360 10365 10368 10372 10376 10382 10387 10395 10403 10413 10424 10438 10448 10458 10468 10478 10486 10491 10497 10503 10512 10516 10518 10521 10523 10524 10526 10526 10525 10524 10522 10521 10518
10297 10303 10310 10318 10326 10325 10326 10328 10333 10338 10339 10340 10345 10351 10355 10359 10363 10367 10372 10379 10388 10398 10412 10425 10436 10447 10460 10470 10476 10481 10486 10497 10502 10506 10510 10512 10515 10517 10518 10518 10518 10517 10516 10515
10286 10289 10297 10301 10307 10307 10313 10315 10317 10321 10327 10329 10332 10335 10340 10344 10347 10352 10357 10362 10367 10374 10385 10399 10412 10426 10438 10451 10460 10464 10472 10483 10488 10493 10498 10502 10504 10507 10509 10511 10511 10511 10510 10510
10269 10273 10280 10286 10289 10291 10296 10300 10305 10309 10312 10315 10318 10321 10325 10330 10335 10337 10341 10345 10349 10353 10363 10374 10387 10403 10418 10430 10441 10448 10457 10467 10474 10479 10484 10489 10492 10495 10499 10501 10502 10503 10503 10503
10254 10258 10262 10268 10271 10279 10282 10287 10291 10294 10296 10300 10305 10309 10312 10317 10321 10324 10327 10331 10335 10339 10345 10354 10366 10379 10395 10409 10421 10431 10440 10450 10458 10464 10469 10475 10479 10483 10487 10492 10493 10494 10495 10495